User: anonymous   Login
Location: Unspecified
(0.0000°N, 0.0000°E)
Time: 18:26:27
(UTC+00:00)
Language:

Mayak - Orbit

View from above orbital plane
View from above orbital plane
View from above satellite
View from above satellite

Ground track
Ground track

The orbit data is extracted from the following two-line orbital elements,

1 42830U 17042F   18049.53391664  .00000790  00000-0  84996-4 0  9996
2 42830  97.6073 316.3736 0013111 228.5756 131.4337 14.91116816 32658
Epoch (UTC): 18 February 2018 12:48:50
Eccentricity: 0.0013111
inclination: 97.6073°
perigee height: 585 km
apogee height: 603 km
right ascension of ascending node: 316.3736°
argument of perigee: 228.5756°
revolutions per day: 14.91116816
mean anomaly at epoch: 131.4337°
orbit number at epoch: 3265

The dashed part of the orbit path shows where the satellite is in the earth's shadow,  

DLR